sat.trackr.live / text

‹ back to catalog

CLARITY-1

NORAD 63227 · 2025-052T

PAYLOAD ACTIVE UNKNOWN

§ Identity

Operator
Country
US
Launch date
2025-03-15
Launch site
AFWTR
Launch vehicle
Mass (kg)
RCS (m²)

External: N2YO · Heavens-Above · Gunter

§ Orbital elements

Epoch: 2026-05-25T03:25:29.699904Z

Period
89.60 min
Inclination
97.3968°
Eccentricity
0.0006294
Mean motion
16.07164917 rev/d
Perigee alt
250.5 km
Apogee alt
258.8 km
Semi-major
6,632.8 km
B*
4.8719e-4
RAAN
64.5448°
Arg perigee
129.8848°
Mean anomaly
230.2988°
Rev number
6,800

§ Raw data

CLARITY-11 63227U 25052T   26145.14270486  .00377851  69526-4  48719-3 0  99992 63227  97.3968  64.5448 0006294 129.8848 230.2988 16.07164917 68004

JSON: /api/v1/satellites/63227 · /tle

For live sub-satellite position, see the globe view (requires WebGL).

§ Visibility from observer

Set your observer location to see the next 7 days of passes ≥ 10°. The values pass through the URL so the page stays shareable.

No JS? Fill the form by hand. The geolocation button needs JavaScript.

§ Radio — SatNOGS DB

ModeDescriptionDownlinkUplink
FM Mode S - Transmitter - TT&C 2.223 GHz
FM Mode X - Transmitter - EESS 8.200 GHz

2 transmitters · refreshed weekly from db.satnogs.org